N291DB KPSP-KSNA

Flight info

Callsign N291DB
Flight time 0h 36m
Altitude VFR/065
Route
Aircraft B58/L-VGD/C

Departure

Time 2026-05-08 16:28
Airport Palm Springs International Airport (KPSP)

Arrival

Time 2026-05-08 17:04
Airport John Wayne Orange County International Airport (KSNA)
Time Latitude Longitude Altitude Speed Heading
2026-05-08 16:28 33.75208 -116.20961 2789 ft 169 kts 307°
2026-05-08 16:28 33.75938 -116.22071 2978 ft 168 kts 307°
2026-05-08 16:28 33.76661 -116.23203 3109 ft 171 kts 306°
2026-05-08 16:28 33.77382 -116.24337 3336 ft 170 kts 307°
2026-05-08 16:29 33.78098 -116.25473 3562 ft 170 kts 306°
2026-05-08 16:29 33.78811 -116.26625 3729 ft 173 kts 305°
2026-05-08 16:29 33.79519 -116.27787 3990 ft 169 kts 306°
2026-05-08 16:29 33.80248 -116.28955 4056 ft 181 kts 305°
2026-05-08 16:30 33.81009 -116.30213 4069 ft 190 kts 305°
2026-05-08 16:30 33.81786 -116.31486 4309 ft 184 kts 307°
2026-05-08 16:30 33.82543 -116.32702 4499 ft 184 kts 304°
2026-05-08 16:30 33.83283 -116.33969 4670 ft 186 kts 304°
2026-05-08 16:31 33.84003 -116.35228 4947 ft 182 kts 302°
2026-05-08 16:31 33.84718 -116.36511 5097 ft 186 kts 303°
2026-05-08 16:31 33.85446 -116.37792 5334 ft 185 kts 303°
2026-05-08 16:31 33.86183 -116.39080 5475 ft 188 kts 303°
2026-05-08 16:32 33.86935 -116.40345 5705 ft 185 kts 304°
2026-05-08 16:32 33.87694 -116.41608 5857 ft 188 kts 300°
2026-05-08 16:32 33.88268 -116.43029 6040 ft 187 kts 289°
2026-05-08 16:32 33.88769 -116.44483 6252 ft 187 kts 292°
2026-05-08 16:33 33.89294 -116.45924 6415 ft 189 kts 291°
2026-05-08 16:33 33.89765 -116.47379 6630 ft 189 kts 288°
2026-05-08 16:33 33.90208 -116.48923 6555 ft 198 kts 286°
2026-05-08 16:33 33.90618 -116.50522 6571 ft 201 kts 285°
2026-05-08 16:34 33.91017 -116.52143 6556 ft 202 kts 285°
2026-05-08 16:34 33.91413 -116.53762 6530 ft 204 kts 285°
2026-05-08 16:34 33.91748 -116.55424 6504 ft 205 kts 281°
2026-05-08 16:34 33.92026 -116.57106 6502 ft 204 kts 280°
2026-05-08 16:35 33.92299 -116.58777 6502 ft 203 kts 280°
2026-05-08 16:35 33.92567 -116.60441 6504 ft 202 kts 280°
2026-05-08 16:35 33.92831 -116.62101 6504 ft 202 kts 279°
2026-05-08 16:35 33.92938 -116.63784 6505 ft 201 kts 270°
2026-05-08 16:36 33.92935 -116.65445 6504 ft 201 kts 269°
2026-05-08 16:36 33.92923 -116.67133 6509 ft 202 kts 269°
2026-05-08 16:36 33.92909 -116.68827 6509 ft 202 kts 269°
2026-05-08 16:36 33.92894 -116.70519 6514 ft 201 kts 269°
2026-05-08 16:37 33.92876 -116.72204 6512 ft 201 kts 269°
2026-05-08 16:37 33.92859 -116.73890 6514 ft 201 kts 269°
2026-05-08 16:37 33.92841 -116.75574 6522 ft 201 kts 269°
2026-05-08 16:37 33.92823 -116.77261 6525 ft 201 kts 269°
2026-05-08 16:38 33.92630 -116.78924 6529 ft 201 kts 253°
2026-05-08 16:38 33.92162 -116.80495 6590 ft 202 kts 249°
2026-05-08 16:38 33.91658 -116.82075 6593 ft 201 kts 249°
2026-05-08 16:38 33.91151 -116.83645 6602 ft 201 kts 249°
2026-05-08 16:39 33.90642 -116.85218 6607 ft 201 kts 249°
2026-05-08 16:39 33.90136 -116.86788 6609 ft 202 kts 249°
2026-05-08 16:39 33.89651 -116.88372 6619 ft 202 kts 257°
2026-05-08 16:39 33.89759 -116.90028 6630 ft 201 kts 294°
2026-05-08 16:40 33.90688 -116.91254 6625 ft 203 kts 330°
2026-05-08 16:40 33.92066 -116.91560 6613 ft 206 kts
2026-05-08 16:40 33.93339 -116.90809 6616 ft 209 kts 44°
2026-05-08 16:40 33.94013 -116.89278 6607 ft 210 kts 81°
2026-05-08 16:41 33.94008 -116.87525 6605 ft 210 kts 91°
2026-05-08 16:41 33.93922 -116.85797 6602 ft 209 kts 97°
2026-05-08 16:41 33.93434 -116.84169 6595 ft 208 kts 124°
2026-05-08 16:42 33.91227 -116.82028 6602 ft 206 kts 159°
2026-05-08 16:42 33.89878 -116.81445 6601 ft 206 kts 166°
2026-05-08 16:42 33.88470 -116.81312 6604 ft 203 kts 193°
2026-05-08 16:42 33.87271 -116.82149 6612 ft 201 kts 231°
2026-05-08 16:43 33.86760 -116.83664 6618 ft 199 kts 268°
2026-05-08 16:43 33.87122 -116.85222 6617 ft 199 kts 304°
2026-05-08 16:43 33.88221 -116.86204 6626 ft 202 kts 341°
2026-05-08 16:43 33.89616 -116.86184 6618 ft 206 kts 18°
2026-05-08 16:44 33.90747 -116.85152 6611 ft 208 kts 55°
2026-05-08 16:44 33.91162 -116.83517 6600 ft 210 kts 91°
2026-05-08 16:44 33.90703 -116.81884 6603 ft 209 kts 128°
2026-05-08 16:44 33.89527 -116.80891 6606 ft 206 kts 166°
2026-05-08 16:45 33.88151 -116.80931 6621 ft 201 kts 202°
2026-05-08 16:45 33.87110 -116.81966 6838 ft 194 kts 240°
2026-05-08 16:45 33.86730 -116.83493 7094 ft 189 kts 261°
2026-05-08 16:45 33.86535 -116.85049 7335 ft 187 kts 262°
2026-05-08 16:46 33.86351 -116.86600 7578 ft 187 kts 262°
2026-05-08 16:46 33.86171 -116.88152 7815 ft 187 kts 262°
2026-05-08 16:46 33.85994 -116.89709 8051 ft 188 kts 262°
2026-05-08 16:46 33.85812 -116.91302 8127 ft 198 kts 262°
2026-05-08 16:47 33.85620 -116.92988 8141 ft 207 kts 262°
2026-05-08 16:47 33.85420 -116.94740 8148 ft 214 kts 262°
2026-05-08 16:47 33.85286 -116.95931 8146 ft 218 kts 262°
2026-05-08 16:47 33.85011 -116.98360 8149 ft 223 kts 262°
2026-05-08 16:48 33.84803 -117.00189 8153 ft 217 kts 262°
2026-05-08 16:48 33.84670 -117.01393 8151 ft 212 kts 263°
2026-05-08 16:48 33.84504 -117.03134 8148 ft 207 kts 263°
2026-05-08 16:48 33.84339 -117.04819 8141 ft 203 kts 263°
2026-05-08 16:49 33.84169 -117.06498 8139 ft 201 kts 263°
2026-05-08 16:49 33.84000 -117.08160 8137 ft 199 kts 263°
2026-05-08 16:49 33.83831 -117.09815 8134 ft 198 kts 263°
2026-05-08 16:49 33.83665 -117.11455 8132 ft 197 kts 263°
2026-05-08 16:50 33.83498 -117.13088 8100 ft 196 kts 263°
2026-05-08 16:50 33.83328 -117.14736 8105 ft 200 kts 263°
2026-05-08 16:50 33.83156 -117.16416 8108 ft 203 kts 263°
2026-05-08 16:50 33.82984 -117.18104 8111 ft 204 kts 263°
2026-05-08 16:51 33.82809 -117.19812 8113 ft 205 kts 263°
2026-05-08 16:51 33.82635 -117.21502 8114 ft 206 kts 263°
2026-05-08 16:51 33.82459 -117.23220 8115 ft 207 kts 263°
2026-05-08 16:51 33.82282 -117.24941 8118 ft 207 kts 263°
2026-05-08 16:52 33.82106 -117.26658 8123 ft 208 kts 263°
2026-05-08 16:52 33.81927 -117.28383 8122 ft 208 kts 263°
2026-05-08 16:52 33.81749 -117.30112 8120 ft 208 kts 263°
2026-05-08 16:52 33.81571 -117.31832 8118 ft 208 kts 263°
2026-05-08 16:53 33.81214 -117.35283 8122 ft 208 kts 263°
2026-05-08 16:53 33.81034 -117.37010 8122 ft 208 kts 263°
2026-05-08 16:53 33.80854 -117.38739 8118 ft 208 kts 263°
2026-05-08 16:54 33.80678 -117.40438 8120 ft 208 kts 263°
2026-05-08 16:54 33.80498 -117.42167 8144 ft 208 kts 263°
2026-05-08 16:54 33.80317 -117.43891 8143 ft 208 kts 263°
2026-05-08 16:54 33.80137 -117.45623 8142 ft 208 kts 263°
2026-05-08 16:55 33.79956 -117.47350 8153 ft 208 kts 263°
2026-05-08 16:55 33.79774 -117.49077 8153 ft 208 kts 263°
2026-05-08 16:55 33.79594 -117.50799 8153 ft 208 kts 263°
2026-05-08 16:55 33.79607 -117.52528 8039 ft 207 kts 282°
2026-05-08 16:56 33.80100 -117.54136 7856 ft 207 kts 293°
2026-05-08 16:56 33.80663 -117.55732 7668 ft 206 kts 292°
2026-05-08 16:56 33.81211 -117.57328 7502 ft 205 kts 292°
2026-05-08 16:56 33.81756 -117.58913 7317 ft 206 kts 292°
2026-05-08 16:57 33.82298 -117.60481 7067 ft 205 kts 292°
2026-05-08 16:57 33.82833 -117.62071 6752 ft 199 kts 288°
2026-05-08 16:57 33.83029 -117.63690 6443 ft 194 kts 275°
2026-05-08 16:57 33.83128 -117.65287 6131 ft 190 kts 276°
2026-05-08 16:58 33.83242 -117.66858 5830 ft 187 kts 276°
2026-05-08 16:58 33.83311 -117.68389 5500 ft 185 kts 271°
2026-05-08 16:58 33.83299 -117.69926 5214 ft 183 kts 271°
2026-05-08 16:58 33.83300 -117.71443 4955 ft 179 kts 272°
2026-05-08 16:59 33.83301 -117.72935 4680 ft 177 kts 271°
2026-05-08 16:59 33.83300 -117.74435 4373 ft 177 kts 271°
2026-05-08 16:59 33.83175 -117.75902 4097 ft 178 kts 253°
2026-05-08 16:59 33.82554 -117.77169 3818 ft 180 kts 229°
2026-05-08 17:00 33.81530 -117.78041 3537 ft 182 kts 208°
2026-05-08 17:00 33.80419 -117.78722 3313 ft 173 kts 209°
2026-05-08 17:00 33.79373 -117.79387 3068 ft 168 kts 210°
2026-05-08 17:00 33.78347 -117.80045 2776 ft 167 kts 208°
2026-05-08 17:01 33.77327 -117.80692 2482 ft 166 kts 207°
2026-05-08 17:01 33.76314 -117.81335 2170 ft 164 kts 207°
2026-05-08 17:01 33.75304 -117.81976 1873 ft 163 kts 208°
2026-05-08 17:01 33.74356 -117.82577 1536 ft 145 kts 208°
2026-05-08 17:02 33.73509 -117.83114 1205 ft 132 kts 207°
2026-05-08 17:02 33.72759 -117.83591 975 ft 116 kts 207°
2026-05-08 17:02 33.72077 -117.84047 813 ft 112 kts 208°
2026-05-08 17:02 33.71400 -117.84500 738 ft 111 kts 205°
2026-05-08 17:03 33.70700 -117.84919 682 ft 111 kts 205°
2026-05-08 17:03 33.70011 -117.85361 546 ft 113 kts 206°
2026-05-08 17:03 33.69319 -117.85788 353 ft 112 kts 205°
2026-05-08 17:03 33.68645 -117.86215 194 ft 110 kts 205°
2026-05-08 17:04 33.67974 -117.86630 55 ft 102 kts 205°
2026-05-08 17:04 33.67467 -117.86951 50 ft 51 kts 207°
2026-05-08 17:04 33.67261 -117.87082 51 ft 18 kts 213°
2026-05-08 17:04 33.67225 -117.87189 52 ft 11 kts 292°
2026-05-08 17:05 33.67234 -117.87205 52 ft 0 kts 315°
2026-05-08 17:05 33.67237 -117.87207 52 ft 0 kts 315°
2026-05-08 17:08 33.67243 -117.87213 52 ft 4 kts 334°
2026-05-08 17:08 33.67302 -117.87203 51 ft 13 kts 27°
2026-05-08 17:08 33.67385 -117.87193 51 ft 14 kts 311°
2026-05-08 17:09 33.67415 -117.87238 51 ft 0 kts 303°